[[{"header":{"parameterUnit":"m.s-1","parameterCategory":1,"la1":30.2991,"la2":30.254,"lo1":-89.0895,"lo2":-89.0444,"dy":0.0017,"dx":0.0017,"nx":28,"ny":28,"refTime":"2025-02-12T03:00:00:Z","depth":0,"parameterNumber":2,"parameterNumberName":"U-component_of_WINDS"},"data":[0,0,0,0,0,0,0,0,0,0,0,0,0,0,0,0,0,0,0,0,0,0,0,0,0,0,0,0,0,0,0,0,0,0,0,0,0,0,0,0,0,0,0,0,0,0,0,0,0,0,0,0,0,0,0,0,0,0,0.2244,0.2245,0,0.2335,0.2336,0.2338,0.2361,0.236,0.236,0.2359,0.2453,0.2456,0.2459,0,0,0,0,0,0,0,0,0,0,0,0,0,0.2089,0.2092,0.2244,0.2245,0.2246,0.2335,0.2337,0.2338,0.2361,0.236,0.236,0.2359,0.2452,0.2456,0.2459,0,0,0,0,0,0,0,0,0,0,0,0,0,0.2166,0.2093,0.2244,0.2269,0.2272,0.2335,0.2337,0.2338,0.2361,0.236,0.236,0.2359,0.2451,0.2455,0.246,0.2505,0,0,0.2474,0.2476,0,0,0,0,0,0,0,0,0.2162,0.2172,0.2264,0.2267,0.2271,0.2336,0.2316,0.2394,0.2361,0.2327,0.2359,0.2358,0.2415,0.2422,0.2441,0.2509,0.2513,0.2474,0.2477,0.2479,0.248,0,0,0,0,0,0,0,0.2156,0.2168,0.228,0.2265,0.2269,0.2275,0.2285,0.2331,0.2375,0.233,0.2332,0.2343,0.2417,0.2437,0.2444,0.2515,0.2474,0.2478,0.2481,0.2483,0.2624,0.2625,0,0,0,0,0,0,0.2147,0.2163,0.2277,0.2283,0.2213,0.2279,0.229,0.2316,0.2374,0.2382,0.2343,0.2343,0.243,0.2438,0.2447,0.2504,0.2479,0.2483,0.2486,0.2623,0.2624,0.2625,0,0,0,0,0,0,0.2143,0.2157,0.2274,0.2224,0.2239,0.2282,0.2311,0.2318,0.2339,0.2384,0.2392,0.2356,0.2429,0.2441,0.249,0.2507,0.2485,0.2489,0.2622,0.2623,0.2625,0.2617,0,0,0,0,0,0,0.2139,0.2155,0.2173,0.2224,0.2242,0.2315,0.2312,0.2321,0.2346,0.2347,0.2398,0.2406,0.2429,0.2483,0.2495,0.2513,0.2493,0.262,0.2622,0.2624,0.2616,0.2619,0.262,0,0,0,0,0,0.2133,0.2168,0.2174,0.2188,0.2265,0.2316,0.2326,0.2353,0.2348,0.2366,0.2395,0.2404,0.2503,0.2488,0.2501,0.2521,0.2619,0.2622,0.2624,0.2615,0.2618,0.262,0,0,0,0,0,0,0.2118,0.2175,0.2182,0.2234,0.227,0.232,0.2344,0.2355,0.2393,0.2393,0.2423,0.2435,0.2482,0.2507,0.2489,0.2568,0.2561,0.2566,0.255,0.2553,0.2555,0.2549,0.2496,0,0,0,0,0,0.212,0.2158,0.2205,0.2246,0.2264,0.2301,0.2324,0.2341,0.238,0.2395,0.2428,0.2465,0.2505,0.253,0.2569,0.2619,0.2631,0.264,0.2642,0.2643,0.2647,0.2676,0.268,0.2633,0.2633,0.2633,0,0,0.2126,0.2162,0.2184,0.2244,0.2274,0.2312,0.2313,0.2354,0.2382,0.2401,0.245,0.2476,0.2519,0.2569,0.2593,0.2591,0.2663,0.2646,0.2647,0.2651,0.2679,0.2683,0.2687,0.2634,0.2634,0.2634,0,0,0.2156,0.2187,0.2224,0.2254,0.23,0.2324,0.2332,0.2381,0.2398,0.2448,0.2463,0.2497,0.2565,0.2595,0.2619,0.2659,0.267,0.2671,0.2682,0.271,0.2713,0.2717,0.2732,0.2736,0.2675,0.2675,0.2675,0,0.2158,0.2216,0.2242,0.2282,0.2308,0.2327,0.2365,0.2393,0.2448,0.2466,0.2463,0.2547,0.2578,0.2635,0.2645,0.2664,0.2675,0.2666,0.2711,0.2714,0.2718,0.2732,0.2738,0.2675,0.2675,0.2675,0.2675,0,0.2215,0.2255,0.228,0.2333,0.2362,0.24,0.2433,0.2459,0.2473,0.2497,0.2547,0.2584,0.2631,0.2645,0.266,0.2705,0.2702,0.2704,0.2699,0.2722,0.2736,0.2742,0.2675,0.2675,0.2675,0.2675,0,0,0.2239,0.2306,0.2315,0.2339,0.239,0.2421,0.246,0.2506,0.2528,0.2565,0.2599,0.2655,0.2657,0.2684,0.2702,0.2726,0.2755,0.2725,0.2726,0.273,0.2808,0.2806,0.2812,0.2762,0.2763,0.2764,0.2804,0,0.2276,0.2347,0.2372,0.243,0.2467,0.2486,0.252,0.2554,0.2578,0.2612,0.2638,0.2678,0.2677,0.2694,0.2718,0.2747,0.2772,0.2744,0.2794,0.2795,0.2783,0.282,0.2819,0.2855,0.281,0.2811,0.2811,0,0.2329,0.2367,0.2429,0.2475,0.2492,0.2522,0.2565,0.2598,0.2638,0.2653,0.2683,0.2699,0.274,0.2731,0.2789,0.2769,0.2791,0.2808,0.281,0.2816,0.2805,0.2828,0.2867,0.2872,0.282,0.282,0.2819,0,0.234,0.2407,0.2453,0.2473,0.2528,0.2549,0.2572,0.2611,0.2637,0.2675,0.2691,0.2733,0.2757,0.2789,0.2815,0.2806,0.287,0.2863,0.2884,0.2884,0.2898,0.2897,0.2942,0.2911,0.291,0.291,0.291,0,0.2379,0.2417,0.2459,0.2487,0.253,0.2557,0.2598,0.2623,0.2657,0.2691,0.2708,0.2739,0.2772,0.2807,0.2828,0.2872,0.2883,0.2896,0.2901,0.2895,0.2893,0.291,0.2909,0.2912,0.2911,0.2911,0.2911,0,0.24,0.2429,0.2481,0.2528,0.2541,0.257,0.2611,0.2639,0.2662,0.2704,0.2716,0.2753,0.2795,0.2825,0.2879,0.2893,0.2941,0.2945,0.2927,0.293,0.295,0.2947,0.3008,0.3017,0.2979,0.2979,0.2979,0,0.2423,0.2452,0.2503,0.2526,0.255,0.2588,0.2614,0.2642,0.2669,0.2716,0.2738,0.2781,0.2817,0.2883,0.2915,0.2957,0.2963,0.2981,0.2969,0.2962,0.2964,0.2962,0.2965,0.2983,0.2983,0.2984,0.2984,0,0.2461,0.2474,0.2511,0.2554,0.2585,0.2619,0.2654,0.2672,0.2706,0.2735,0.2778,0.2806,0.2861,0.2904,0.2948,0.2972,0.2984,0.2987,0.2994,0.2988,0.2977,0.2984,0.2933,0.2986,0.2986,0.2985,0.2985,0.2985,0.2484,0.2511,0.2551,0.2591,0.2621,0.2653,0.2681,0.2708,0.2745,0.2792,0.2806,0.2851,0.2889,0.295,0.2975,0.301,0.3009,0.3019,0.3022,0.3024,0.3024,0.297,0.3018,0.3018,0.3018,0.3018,0.3018,0,0.2523,0.255,0.2587,0.2635,0.2667,0.2675,0.2714,0.274,0.2779,0.2814,0.2849,0.2898,0.2939,0.2974,0.3017,0.3038,0.3045,0.3049,0.3048,0.3053,0.3022,0.3012,0.3043,0.3043,0.3043,0.3043,0.3043,0.3043,0.2548,0.2593,0.2611,0.2672,0.2698,0.2742,0.2763,0.2793,0.2821,0.2875,0.291,0.2932,0.2967,0.3012,0.305,0.3059,0.3074,0.3077,0.3087,0.3058,0.3055,0.3053,0.3043,0.308,0.308,0.3115,0.3116,0.3116]},{"header":{"parameterUnit":"m.s-1","parameterCategory":1,"la1":30.2991,"la2":30.254,"lo1":-89.0895,"lo2":-89.0444,"dy":0.0017,"dx":0.0017,"nx":28,"ny":28,"refTime":"2025-02-12T03:00:00:Z","depth":0,"parameterNumber":3,"parameterNumberName":"V-component_of_WINDS"},"data":[0,0,0,0,0,0,0,0,0,0,0,0,0,0,0,0,0,0,0,0,0,0,0,0,0,0,0,0,0,0,0,0,0,0,0,0,0,0,0,0,0,0,0,0,0,0,0,0,0,0,0,0,0,0,0,0,0,0,3.3062,3.3064,0,3.3285,3.3288,3.3291,3.3325,3.3323,3.3321,3.332,3.3553,3.3561,3.3569,0,0,0,0,0,0,0,0,0,0,0,0,0,3.2668,3.2675,3.3062,3.3064,3.3067,3.3285,3.3288,3.3291,3.3326,3.3323,3.3321,3.3319,3.355,3.356,3.3569,0,0,0,0,0,0,0,0,0,0,0,0,0,3.286,3.2677,3.3061,3.3111,3.3117,3.3284,3.3288,3.3292,3.3326,3.3323,3.332,3.3317,3.3547,3.3559,3.3571,3.3706,0,0,3.3608,3.3613,0,0,0,0,0,0,0,0,3.2849,3.2874,3.3101,3.3108,3.3115,3.3274,3.3235,3.3431,3.3327,3.3247,3.3319,3.3316,3.3463,3.3482,3.353,3.3716,3.3726,3.3609,3.3616,3.3621,3.3625,0,0,0,0,0,0,0,3.2836,3.2865,3.315,3.3104,3.3113,3.3123,3.3147,3.3272,3.3369,3.3254,3.3257,3.3283,3.3466,3.3519,3.3536,3.373,3.3609,3.3619,3.3627,3.3632,3.4039,3.4042,0,0,0,0,0,0,3.2813,3.2854,3.3143,3.3157,3.2972,3.3132,3.3159,3.3226,3.3368,3.3387,3.3285,3.3283,3.3499,3.3522,3.3545,3.3713,3.3621,3.3633,3.364,3.4035,3.404,3.4044,0,0,0,0,0,0,3.2804,3.2838,3.3134,3.3006,3.3045,3.3142,3.3218,3.3232,3.3285,3.3391,3.3409,3.332,3.3498,3.3527,3.3665,3.3721,3.3638,3.3649,3.4031,3.4037,3.4042,3.405,0,0,0,0,0,0,3.2793,3.2835,3.2887,3.3007,3.3051,3.325,3.3221,3.3239,3.3305,3.3305,3.3429,3.3447,3.3498,3.3647,3.3677,3.3737,3.3659,3.4027,3.4034,3.404,3.4045,3.4055,3.4063,0,0,0,0,0,3.2779,3.2881,3.2889,3.2924,3.3117,3.3253,3.3279,3.3334,3.3309,3.3363,3.3431,3.3443,3.371,3.3661,3.3695,3.3759,3.4023,3.4032,3.4039,3.4041,3.4053,3.4063,0,0,0,0,0,0,3.2766,3.2897,3.2908,3.3052,3.3141,3.3259,3.3328,3.3344,3.3443,3.344,3.3505,3.3533,3.3668,3.3727,3.367,3.3897,3.3865,3.388,3.3854,3.3866,3.3875,3.3859,3.3669,0,0,0,0,0,3.2779,3.2877,3.2987,3.3104,3.3147,3.3229,3.3291,3.3325,3.3421,3.3459,3.3538,3.3631,3.3736,3.3804,3.3906,3.4053,3.4081,3.4114,3.4122,3.4129,3.4143,3.4226,3.4242,3.407,3.407,3.407,0,0,3.2809,3.2893,3.2951,3.3103,3.3176,3.3277,3.3261,3.3369,3.3445,3.3476,3.3611,3.3672,3.378,3.3923,3.399,3.3977,3.4196,3.414,3.4144,3.4154,3.4236,3.4252,3.4267,3.4075,3.4074,3.4073,0,0,3.2915,3.2988,3.3093,3.3166,3.3276,3.333,3.3355,3.3471,3.3512,3.3648,3.3673,3.3765,3.3944,3.4021,3.4083,3.4217,3.4233,3.4249,3.4297,3.4377,3.4391,3.4403,3.4453,3.447,3.4261,3.4261,3.4261,0,3.2939,3.3091,3.3145,3.3252,3.3319,3.3349,3.3457,3.3526,3.3664,3.3711,3.3693,3.3918,3.3994,3.4155,3.4188,3.4237,3.4269,3.4236,3.4384,3.4397,3.441,3.4458,3.4476,3.4262,3.4262,3.4262,3.4262,0,3.3115,3.3221,3.3293,3.3424,3.3499,3.3606,3.3677,3.3746,3.3774,3.383,3.3968,3.4059,3.4181,3.4221,3.425,3.4388,3.4376,3.4371,3.434,3.4427,3.4473,3.4492,3.4264,3.4264,3.4263,3.4263,0,0,3.3222,3.3381,3.3407,3.3467,3.359,3.3674,3.3782,3.39,3.3958,3.4052,3.4146,3.4296,3.4292,3.4363,3.44,3.447,3.4573,3.4456,3.446,3.4477,3.4733,3.4738,3.4758,3.4583,3.4586,3.4589,3.4724,0,3.3344,3.3537,3.3589,3.3754,3.3852,3.3882,3.3977,3.4063,3.4118,3.4211,3.4272,3.4378,3.4363,3.4406,3.4477,3.4545,3.4625,3.4536,3.4673,3.4677,3.4647,3.4782,3.4788,3.4911,3.4742,3.4746,3.4748,0,3.3513,3.361,3.3784,3.3894,3.3938,3.4022,3.4134,3.4222,3.4321,3.4356,3.4434,3.4465,3.458,3.4541,3.4703,3.464,3.4699,3.4741,3.4748,3.4765,3.472,3.4805,3.4952,3.4971,3.4777,3.4774,3.4772,0,3.3576,3.3749,3.3876,3.3926,3.4058,3.4117,3.4175,3.427,3.4338,3.4436,3.4481,3.4591,3.4653,3.4738,3.4799,3.4764,3.4956,3.4921,3.499,3.4989,3.5032,3.5029,3.5192,3.5065,3.5065,3.5065,3.5064,0,3.3709,3.3815,3.3906,3.3984,3.4104,3.4162,3.4279,3.4338,3.4423,3.4515,3.4547,3.4632,3.4705,3.4801,3.4849,3.4976,3.5003,3.5037,3.5049,3.5035,3.5031,3.5077,3.5071,3.507,3.5069,3.5068,3.5067,0,3.38,3.3865,3.4006,3.4118,3.4149,3.4232,3.433,3.4408,3.4462,3.4578,3.4608,3.4695,3.481,3.4877,3.5022,3.5054,3.5196,3.5204,3.5163,3.5169,3.5235,3.5229,3.5435,3.5466,3.5316,3.5317,3.5318,0,3.3881,3.3964,3.4084,3.4147,3.4205,3.4306,3.4375,3.4435,3.4505,3.4624,3.4688,3.4804,3.49,3.5081,3.5159,3.527,3.5282,3.5346,3.5299,3.5283,3.5286,3.5281,3.5291,3.5355,3.5357,3.5358,3.5359,0,3.402,3.4048,3.4145,3.4253,3.4334,3.4423,3.4511,3.4561,3.4636,3.4714,3.483,3.4904,3.5051,3.5167,3.5284,3.5346,3.5366,3.5372,3.5395,3.5384,3.5357,3.5375,3.5187,3.5368,3.5367,3.5366,3.5366,3.5366,3.4111,3.4186,3.4282,3.4389,3.4462,3.4543,3.4622,3.4686,3.4784,3.4907,3.4937,3.506,3.5157,3.5317,3.5381,3.5479,3.5469,3.5501,3.551,3.5517,3.552,3.5339,3.5501,3.5501,3.55,3.55,3.55,0,3.4253,3.4316,3.4414,3.4536,3.462,3.4629,3.4727,3.4798,3.4905,3.4993,3.5087,3.5221,3.5333,3.5418,3.5534,3.5596,3.5608,3.5625,3.5622,3.5636,3.5522,3.5492,3.5613,3.5613,3.5613,3.5613,3.5613,3.5613,3.4337,3.4464,3.4503,3.4667,3.473,3.4849,3.4905,3.4981,3.5052,3.52,3.5293,3.5347,3.5435,3.5557,3.566,3.5683,3.5725,3.574,3.5764,3.5656,3.5644,3.5633,3.5605,3.5748,3.5748,3.5872,3.5873,3.5874]}]]